EW9862 Weather Reports


Display with metric or nautical units.
time (UTC)temp
F
wind
direction
speed
MPH
gust
MPH
rain 1hr
in
rain 24hr
in
rain mn
in
humidity
%
barometer
mb
20260507191527 54 226 0.0 1.0 0.00 0.00 0.00 73 1014.6
20260507190024 54 226 0.0 2.0 0.00 0.00 0.00 72 1014.4
20260507184526 54 226 0.0 2.0 0.00 0.00 0.00 70 1014.3
20260507183025 54 212 0.0 2.0 0.00 0.00 0.00 70 1014.2
20260507181519 54 212 0.0 2.0 0.00 0.00 0.00 72 1014.2
20260507180014 54 200 1.0 6.0 0.00 0.00 0.00 73 1014.2
20260507174535 54 214 1.0 7.0 0.00 0.00 0.00 72 1014.1
20260507173033 55 179 3.0 10.0 0.00 0.00 0.00 72 1014.0
20260507171526 55 167 5.0 10.0 0.00 0.00 0.00 73 1014.0
20260507170025 56 174 5.0 9.0 0.00 0.00 0.00 72 1014.1
20260507164520 56 129 4.0 6.0 0.00 0.00 0.00 72 1014.0
20260507163026 55 188 3.0 5.0 0.00 0.00 0.00 72 1014.0
20260507161513 55 167 2.0 5.0 0.00 0.00 0.00 72 1014.0
20260507160013 55 131 1.0 4.0 0.00 0.00 0.00 72 1014.0
20260507154516 55 169 1.0 4.0 0.00 0.00 0.00 72 1014.1
20260507153010 55 164 3.0 8.0 0.00 0.00 0.00 72 1014.2
20260507151505 55 196 5.0 8.0 0.00 0.00 0.00 68 1014.3
20260507150011 56 153 4.0 9.0 0.00 0.00 0.00 65 1014.4
20260507144514 56 188 6.0 10.0 0.00 0.00 0.00 63 1014.4
20260507143022 57 131 6.0 11.0 0.00 0.00 0.00 62 1014.4
20260507141512 57 198 6.0 11.0 0.00 0.00 0.00 60 1014.5
20260507140012 57 183 6.0 11.0 0.00 0.00 0.00 60 1014.7
20260507134526 58 235 7.0 14.0 0.00 0.00 0.00 58 1014.7
20260507133019 58 201 8.0 13.0 0.00 0.00 0.00 57 1014.7
20260507131524 58 162 7.0 13.0 0.00 0.00 0.00 57 1014.7
20260507130027 59 121 3.0 6.0 0.00 0.00 0.00 57 1014.7
20260507124519 59 183 5.0 13.0 0.00 0.00 0.00 59 1014.7
20260507123010 58 164 7.0 11.0 0.00 0.00 0.00 58 1014.9
20260507121518 58 161 4.0 9.0 0.00 0.00 0.00 58 1015.1
20260507120025 57 129 1.0 10.0 0.00 0.00 0.00 62 1015.3
20260507114520 55 214 2.0 9.0 0.00 0.00 0.00 66 1015.4
20260507113023 54 187 2.0 8.0 0.00 0.00 0.00 67 1015.5
20260507111517 54 193 3.0 7.0 0.00 0.00 0.00 70 1015.6
20260507110015 53 159 2.0 7.0 0.00 0.00 0.00 72 1015.7
20260507104527 52 136 2.0 6.0 0.00 0.00 0.00 75 1015.8
20260507103030 51 141 3.0 6.0 0.00 0.00 0.00 77 1015.9
20260507101507 50 107 2.0 6.0 0.00 0.00 0.00 78 1016.0
20260507100005 49 117 2.0 5.0 0.00 0.00 0.00 80 1016.0
20260507094519 49 193 2.0 5.0 0.00 0.00 0.00 80 1015.9
20260507093016 48 143 2.0 5.0 0.00 0.00 0.00 82 1015.9
20260507091514 48 190 2.0 4.0 0.00 0.00 0.00 84 1015.9
20260507090008 47 78 1.0 5.0 0.00 0.00 0.00 84 1015.9
20260507084509 46 146 2.0 5.0 0.00 0.00 0.00 85 1015.9
20260507083006 46 107 2.0 6.0 0.00 0.00 0.00 85 1015.9
20260507081519 46 76 3.0 5.0 0.00 0.00 0.00 86 1015.8
20260507080018 46 112 2.0 4.0 0.00 0.00 0.00 86 1015.8
20260507074516 45 207 1.0 4.0 0.00 0.00 0.00 86 1015.8
20260507073010 45 111 2.0 5.0 0.00 0.00 0.00 87 1015.7
20260507071519 45 172 2.0 5.0 0.00 0.00 0.00 87 1015.6
20260507070010 44 94 2.0 5.0 0.00 0.00 0.00 87 1015.6
20260507064523 44 108 2.0 4.0 0.00 0.00 0.00 87 1015.6
20260507063020 44 146 1.0 3.0 0.00 0.00 0.00 87 1015.6
20260507061518 44 128 2.0 5.0 0.00 0.00 0.00 87 1015.6
20260507060013 44 135 2.0 4.0 0.00 0.00 0.00 87 1015.5
20260507054509 44 115 2.0 5.0 0.00 0.00 0.00 87 1015.4
20260507053012 44 144 1.0 3.0 0.00 0.00 0.00 87 1015.5
20260507051531 44 107 1.0 3.0 0.00 0.00 0.00 87 1015.4
20260507050032 44 113 1.0 3.0 0.00 0.00 0.00 87 1015.4
20260507044522 44 121 0.0 1.0 0.00 0.00 0.00 87 1015.4
20260507043016 44 124 0.0 2.0 0.00 0.00 0.00 87 1015.3
20260507041513 44 163 0.0 2.0 0.00 0.00 0.00 87 1015.4
20260507040029 44 178 0.0 2.0 0.00 0.00 0.00 86 1015.4
20260507034534 44 141 1.0 3.0 0.00 0.00 0.00 86 1015.4
20260507033035 44 150 1.0 3.0 0.00 0.00 0.00 86 1015.4
20260507031522 44 125 1.0 3.0 0.00 0.00 0.00 86 1015.4
20260507030024 44 124 1.0 4.0 0.00 0.00 0.00 86 1015.5
20260507024516 44 92 2.0 4.0 0.00 0.00 0.00 86 1015.5
20260507023033 44 157 1.0 6.0 0.00 0.00 0.00 86 1015.6
20260507021526 44 123 2.0 6.0 0.00 0.00 0.00 85 1015.5
20260507020025 44 117 2.0 7.0 0.00 0.00 0.00 85 1015.5
20260507014507 44 117 2.0 5.0 0.00 0.00 0.00 85 1015.7
20260507013021 45 118 2.0 5.0 0.00 0.00 0.00 85 1015.6
20260507011516 45 114 3.0 5.0 0.00 0.00 0.00 84 1015.7
20260507010022 45 105 2.0 5.0 0.00 0.00 0.00 84 1015.8
20260507004509 45 146 1.0 5.0 0.00 0.00 0.00 84 1015.7
20260507003008 45 118 2.0 5.0 0.00 0.00 0.00 83 1015.8
20260507001504 45 146 0.0 2.0 0.00 0.00 0.00 83 1016.0
20260507000024 46 181 2.0 6.0 0.00 0.00 0.00 82 1015.8
20260506234518 46 234 2.0 7.0 0.00 0.00 0.00 82 1015.7
20260506233017 46 120 3.0 5.0 0.00 0.00 0.00 82 1015.6
20260506231516 46 105 1.0 4.0 0.00 0.00 0.00 82 1015.7
20260506230009 46 114 1.0 9.0 0.00 0.00 0.00 81 1015.7
20260506224507 46 102 3.0 5.0 0.00 0.00 0.00 80 1015.6
20260506223024 46 154 1.0 5.0 0.00 0.00 0.00 80 1015.6
20260506221520 47 140 2.0 6.0 0.00 0.00 0.00 79 1015.6
20260506220031 47 127 2.0 6.0 0.00 0.00 0.00 79 1015.5
20260506214516 47 145 3.0 7.0 0.00 0.00 0.00 78 1015.4
20260506213012 47 120 3.0 6.0 0.00 0.00 0.00 78 1015.3
20260506211509 47 94 4.0 8.0 0.00 0.00 0.00 78 1015.0
20260506210025 48 124 3.0 6.0 0.00 0.00 0.00 78 1014.9
20260506204526 48 136 3.0 5.0 0.00 0.00 0.00 76 1014.9
20260506203022 48 115 3.0 6.0 0.00 0.00 0.00 74 1014.9
20260506201516 49 105 3.0 5.0 0.00 0.00 0.00 72 1014.8
20260506200017 50 79 4.0 5.0 0.00 0.00 0.00 68 1014.6
20260506194510 51 112 3.0 5.0 0.00 0.00 0.00 66 1014.5
20260506193026 51 105 3.0 6.0 0.00 0.00 0.00 64 1014.4